User: anonymous
Location: Caltech
(34.1382°N, 118.1253°W)
Time: 08:09:37
(UTC-07:00)
Language:

Cosmos 2322 - Orbit

View from above orbital plane
View from above orbital plane
View from above satellite
View from above satellite

Ground track
Ground track

The orbit data is extracted from the following two-line orbital elements,

1 23704U 95058A   14293.51567611  .00000208  00000-0  13641-3 0  1231
2 23704 070.9879 278.1385 0007300 126.7564 011.1421 14.13281403978699
Epoch (UTC): 20 October 2014 12:22:34
Eccentricity: 0.0007300
inclination: 70.9879°
perigee height: 843 km
apogee height: 853 km
right ascension of ascending node: 278.1385°
argument of perigee: 126.7564°
revolutions per day: 14.13281403
mean anomaly at epoch: 11.1421°
orbit number at epoch: 97869

The dashed part of the orbit path shows where the satellite is in the earth's shadow,  

DLR